{"data":{"norad_id":40086,"epoch":"2026-09-19T19:32:10.224672Z","epoch_age_seconds":73628,"freshness":"FRESH","line1":"1 40086U 14040A   26262.81400723  .00000200  00000+0  78402-4 0  9996","line2":"2 40086  47.0047   4.0705 0002153 277.9096  82.1545 14.58921695648169","mean_motion":14.58921695,"eccentricity":0.0002153,"inclination_deg":47.0047,"raan_deg":4.0705,"arg_perigee_deg":277.9096,"mean_anomaly_deg":82.1545,"bstar":7.8402e-5,"rev_number":64816,"period_min":98.70303560055,"perigee_km":695.13467846748,"apogee_km":698.18108514359,"semimajor_km":7074.7948818055,"source":"CELESTRAK","updated_at":"2026-09-20T09:00:44.909957Z"}}